Weather History for KSAW - September, 2013

Change the Weather History Date:

Saturday, September 7, 2013

  Actual Average (KMQT) Record (KMQT)
Temperature  
Mean Temperature 64 °F 59 °F  
Max Temperature 75 °F 69 °F 91 °F (2002)
Min Temperature 54 °F 49 °F 29 °F (1982)
Degree Days  
Heating Degree Days 0 7  
Month to date heating degree days 45  
Since 1 July heating degree days 230  
Cooling Degree Days 0 1  
Month to date cooling degree days 10  
Year to date cooling degree days 230  
Growing Degree Days 14 (Base 50)    
Moisture  
Dew Point 60 °F    
Average Humidity 91    
Maximum Humidity 100    
Minimum Humidity 73    
Precipitation  
Precipitation 0.00 in 0.12 in 0.81 in (1985)
Month to date precipitation 0.77  
Year to date precipitation 23.14  
Snow  
Snow 0.00 in 0.00 in - ()
Month to date snowfall 0.0  
Since 1 July snowfall 0.0  
Since 1 September snowfall 0.0  
Snow Depth -    
Sea Level Pressure  
Sea Level Pressure 29.95 in    
Wind  
Wind Speed 5 mph (North)    
Max Wind Speed 16 mph    
Max Gust Speed 22 mph    
Visibility 8 miles    
Events      
T = Trace of Precipitation, MM = Missing Value Source: NWS Daily Summary

Daily Weather History Graph

Daily Weather History Graph

Search for Another Location

Airport or City:

Trip Planner

Search our weather history database for the weather conditions in past years. The results will help you decide how hot, cold, wet, or windy it might be!

Date:

Astronomy

Sep. 07, 2013 Rise Set
Actual Time 7:17 AM EDT 8:16 PM EDT
Civil Twilight 6:47 AM EDT 8:46 PM EDT
Nautical Twilight 6:10 AM EDT 9:23 PM EDT
Astronomical Twilight 5:31 AM EDT 10:01 PM EDT
Moon 9:42 AM EDT (9/7) 9:02 PM EDT (9/7)
Length of Visible Light 13h 59m
Length of Day
12h 58m
Waxing Crescent, 5% of the Moon is Illuminated
Sep 7
Waxing Crescent
Sep 12
First Quarter
Sep 19
Full
Sep 26
Last Quarter
Oct 4
New

Hourly Weather History & Observations

Time (EDT) Temp. Dew Point Humidity Pressure Visibility Wind Dir Wind Speed Gust Speed Precip Events Conditions
12:17 AM 65.3 °F 61.9 °F 89% 29.91 in 10.0 mi South 6.9 mph - N/A   Overcast
12:36 AM 64.9 °F 61.9 °F 90% 29.91 in 10.0 mi South 6.9 mph - N/A   Mostly Cloudy
12:57 AM 64.6 °F 61.7 °F 90% 29.90 in 10.0 mi South 5.8 mph - N/A   Mostly Cloudy
1:17 AM 64.4 °F 61.7 °F 91% 29.90 in 10.0 mi South 4.6 mph - N/A   Scattered Clouds
1:36 AM 64.0 °F 61.7 °F 92% 29.90 in 10.0 mi South 3.5 mph - N/A   Scattered Clouds
1:57 AM 64.0 °F 61.9 °F 93% 29.90 in 10.0 mi SSW 3.5 mph - N/A   Mostly Cloudy
2:17 AM 63.9 °F 61.7 °F 93% 29.90 in 10.0 mi Calm Calm - N/A   Mostly Cloudy
2:37 AM 63.1 °F 61.3 °F 94% 29.90 in 10.0 mi Calm Calm - N/A   Clear
2:57 AM 63.5 °F 61.7 °F 94% 29.89 in 10.0 mi Calm Calm - N/A   Clear
3:16 AM 63.0 °F 61.3 °F 94% 29.89 in 10.0 mi Calm Calm - N/A   Clear
3:37 AM 63.7 °F 62.1 °F 94% 29.89 in 10.0 mi Calm Calm - N/A   Clear
3:57 AM 63.9 °F 62.6 °F 96% 29.89 in 7.0 mi Calm Calm - N/A   Clear
4:16 AM 64.2 °F 62.6 °F 94% 29.88 in 7.0 mi Calm Calm - N/A   Clear
4:37 AM 64.4 °F 62.8 °F 94% 29.87 in 7.0 mi Calm Calm - N/A   Clear
4:57 AM 63.9 °F 62.6 °F 96% 29.87 in 7.0 mi Calm Calm - N/A   Clear
5:17 AM 64.4 °F 63.0 °F 95% 29.87 in 7.0 mi Calm Calm - N/A   Clear
5:37 AM 64.4 °F 63.0 °F 95% 29.87 in 7.0 mi Calm Calm - N/A   Clear
5:57 AM 64.0 °F 62.8 °F 96% 29.87 in 7.0 mi Calm Calm - N/A   Clear
6:50 AM 64.4 °F 62.6 °F 94% 29.87 in 10.0 mi Calm Calm - N/A   Scattered Clouds
7:50 AM 64.4 °F 62.6 °F 94% 29.89 in 10.0 mi Calm Calm - N/A   Scattered Clouds
8:50 AM 68.0 °F 64.4 °F 88% 29.88 in 10.0 mi Calm Calm - N/A   Partly Cloudy
9:50 AM 73.4 °F 66.2 °F 78% 29.88 in 10.0 mi NNW 5.8 mph - N/A   Clear
10:50 AM 75.2 °F 66.2 °F 73% 29.90 in 10.0 mi NE 8.1 mph - N/A   Partly Cloudy
11:50 AM 75.2 °F 66.2 °F 73% 29.91 in 10.0 mi NE 12.7 mph - N/A   Scattered Clouds
12:27 PM 71.6 °F 66.2 °F 83% 29.93 in 10.0 mi NE 16.1 mph 21.9 mph N/A   Mostly Cloudy
12:45 PM 68.0 °F 64.4 °F 88% 29.94 in 7.0 mi NE 12.7 mph - N/A   Overcast
1:50 PM 64.4 °F 62.6 °F 94% 29.95 in 3.0 mi North 13.8 mph - N/A   Overcast
3:55 PM 60.8 °F 60.8 °F 100% 29.97 in 1.0 mi North 12.7 mph 18.4 mph N/A   Overcast
5:50 PM 59.0 °F 59.0 °F 100% 30.01 in 1.0 mi NNE 15.0 mph - N/A   Overcast
6:50 PM 59.0 °F 57.2 °F 94% 30.04 in 1.8 mi North 13.8 mph - N/A   Overcast
8:50 PM 57.2 °F 55.4 °F 94% 30.07 in 10.0 mi North 10.4 mph - N/A   Mostly Cloudy
9:50 PM 55.4 °F 53.6 °F 94% 30.09 in 10.0 mi North 8.1 mph - N/A   Scattered Clouds
10:16 PM 55.6 °F 52.0 °F 88% 30.09 in 10.0 mi North 5.8 mph - N/A   Clear
10:37 PM 54.7 °F 51.8 °F 90% 30.09 in 10.0 mi NNW 5.8 mph - N/A   Clear
10:57 PM 54.5 °F 51.3 °F 89% 30.10 in 10.0 mi NNW 5.8 mph - N/A   Clear
11:16 PM 54.7 °F 50.9 °F 87% 30.10 in 10.0 mi North 4.6 mph - N/A   Clear
11:37 PM 54.7 °F 50.5 °F 86% 30.11 in 10.0 mi North 8.1 mph - N/A   Clear
11:57 PM 54.0 °F 50.2 °F 87% 30.11 in 10.0 mi North 6.9 mph - N/A   Clear